Regional Weather Roundup
Issued by NWS

Home | Current Version | Previous Version | Graphics & Text | Print | Product List | Glossary On
Versions: 1 2 3 4 5 6 7 8 9 10 11 12 13 14 15 16 17 18 19 20 21 22 23 24 25 26 27 28 29 30 31 32 33 34 35 36 37 38 39 40 41 42 43 44 45 46 47 48 49 50
000
ASUS43 KMPX 240310
RWRMN
WEATHER ROUNDUP FOR MINNESOTA
NATIONAL WEATHER SERVICE TWIN CITIES/CHANHASSEN MN
900 PM CST SUN NOV 23 2014


NOTE: "FAIR" INDICATES FEW OR NO CLOUDS BELOW 12,000 FEET WITH NO
SIGNIFICANT WEATHER AND/OR OBSTRUCTIONS TO VISIBILITY. N/A MEANS
CURRENT SKY AND/OR WEATHER CONDITIONS ARE NOT AVAILABLE.

MNZ060>063-068>070-240400-
   Twin Cities Metro

CITY           SKY/WX    TMP DP  RH WIND       PRES   REMARKS
TWIN CITIES    LGT RAIN  37  35  92 NW13      29.36F
ST PAUL        LGT RAIN  38  35  89 NW13      29.36F
CRYSTAL        LGT RAIN  38  35  89 NW13      29.36F FOG
BLAINE         LGT RAIN  37  37 100 MISG      29.35F
LAKEVILLE      DRIZZLE   36  36 100 W13       29.35F
EDEN PRAIRIE   LGT RAIN  36  34  92 NW15      29.35F
SOUTH ST PAUL  CLOUDY    39  36  89 NW9G18    29.35F
LAKE ELMO      LGT RAIN  37  36  93 NW10      29.34F
$$
MNZ001>005-007-008-013>017-022>024-027-028-240400-
   Northwest Minnesota

CITY           SKY/WX    TMP DP  RH WIND       PRES   REMARKS
BEMIDJI        CLOUDY    25  24  95 NW15      29.43S WCI  13
HALLOCK        LGT SNOW  18  14  86 N22       29.57S WCI   0
ROSEAU         CLOUDY    23  18  80 NW13      29.48S WCI  11
WARROAD        LGT SNOW  25  21  86 NW9       29.46S WCI  15
THIEF RVR FALL CLOUDY    18  16  93 NW17      29.52S WCI   2
CROOKSTON      MIX PCPN  18  16  93 N23       29.57S WCI   0
FOSSTON        CLOUDY    18  16  93 NW14G21   29.50F FOG     WCI   4
DETROIT LAKES  CLOUDY    23  21  93 N22G30    29.50R WCI   8
MOORHEAD       CLOUDY    21  21 100 NW21      29.56S FOG     WCI   6
PARK RAPIDS    CLOUDY    29  26  89 NW17      29.41F WCI  17
MAHNOMEN       CLOUDY    19  18  93 NW17G23   29.50F WCI   4
$$
MNZ006-009>011-018-025>026-240400-
   North Central Minnesota

CITY           SKY/WX    TMP DP  RH WIND       PRES   REMARKS
BAUDETTE       CLOUDY    29  28  96 NW7       29.41S FOG     WCI  22
FLAG ISLAND    CLOUDY    30  28  93 NW13      29.42S FOG     WCI  20
INTL FALLS     LGT RAIN  34  32  92 N6        29.38S FOG     WCI  29
WASKISH        CLOUDY    28  27  93 W9G16     29.42S WCI  20
BIG FORK       CLOUDY    36  34  93 NW6       29.37F
LONGVILLE      CLOUDY    34  28  80 NW9       29.38S WCI  26
GRAND RAPIDS   CLOUDY    36  32  87 NW8       29.36S
CRANE LAKE     LGT SNOW  32  32 100 CALM      29.38F
ORR            CLOUDY    34  30  86 CALM      29.34F FOG
COOK           LGT RAIN  34  34 100 CALM      29.36F
WALKER         CLOUDY    30  28  93 W13       29.40S WCI  20
$$
MNZ012-019>021-037-240400-
   Northeast Minnesota

CITY           SKY/WX    TMP DP  RH WIND       PRES   REMARKS
DULUTH         LGT RAIN  35  33  92 NW9       29.33F FOG     WCI  28
ELY            CLOUDY    34  34 100 CALM      29.34F FOG
HIBBING        CLOUDY    35  32  88 NW6       29.35F FOG     WCI  30
EVELETH        LGT RAIN  34  34 100 CALM      29.36F
DULUTH HARBOR  DRIZZLE   36  36 100 CALM      29.35F
TWO HARBORS    LGT RAIN  39  34  81 CALM      29.31F
SILVER BAY     LGT RAIN  37  36  93 CALM      29.31F
GRAND MARAIS     N/A     39  37  92 VRB5      29.32F
G MARAIS ARPRT FOG       34  32  93 N9        29.30F VSB 3/4 WCI  26
$$
MNZ029>031-032-039>041-046>048-054>057-064-240400-
   West Central Minnesota

CITY           SKY/WX    TMP DP  RH WIND       PRES   REMARKS
FERGUS FALLS   CLOUDY    25  23  93 N17G36    29.53R FOG     WCI  11
WHEATON        CLOUDY    21  19  93 NW23G30   29.55F WCI   5
MORRIS           N/A     27  25  93 NW22      29.49F WCI  12
ALEXANDRIA     CLOUDY    28  22  78 NW17      29.46F WCI  16
ELBOW LAKE       N/A     27  24  89 NW18      29.49S WCI  13
WADENA         CLOUDY    28  25  86 W13       29.44S WCI  18
GLENWOOD       PTCLDY    28  25  86 W17       29.46S WCI  16
APPLETON       CLOUDY    28  23  80 NW22G32   29.53R WCI  15
BENSON         CLOUDY    28  25  86 N21G28    29.50S WCI  15
ORTONVILLE     CLOUDY    25  19  80 NW22G29   29.53S WCI  10
MADISON        PTCLDY    30  25  80 NW22G30   29.53S WCI  17
WILLMAR        CLOUDY    30  25  80 NW21G29   29.48S WCI  17
$$
MNZ033>034-036-042>043-049>051-058-059-240400-
   Central Minnesota

CITY           SKY/WX    TMP DP  RH WIND       PRES   REMARKS
ST CLOUD       CLOUDY    35  26  69 NW18      29.40S WCI  24
SAUK CENTRE    CLOUDY    30  24  79 NW18      29.44S WCI  17
PAYNESVILLE    CLOUDY    29  24  82 W20G25    29.44F WCI  16
AITKIN         MIX PCPN  39  34  81 CALM      29.35F
PINE RIVER     CLOUDY    32  28  86 W5        29.43F WCI  27
BRAINERD       CLOUDY    33  28  81 W10       29.39F WCI  25
STAPLES        CLOUDY    28  25  86 NW14G20   29.42S WCI  17
LONG PRAIRIE   CLOUDY    30  25  80 W12G21    29.43S WCI  21
LITTLE FALLS   CLOUDY    32  27  80 NW7       29.41F WCI  26
LITCHFIELD     CLOUDY    34  28  80 NW14G23   29.44R WCI  24
BUFFALO        CLOUDY    35  30  82 W13G20    29.40F WCI  26
MAPLE LAKE     CLOUDY    35  30  83 W16G23    29.40F WCI  25
$$
MNZ037-044-045-052-053-240400-
   East Central Minnesota

CITY           SKY/WX    TMP DP  RH WIND       PRES   REMARKS
PRINCETON      DRIZZLE   37  36  93 W12       29.37F
MORA           DRIZZLE   34  32  93 NW6       29.37F WCI  29
CAMBRIDGE      DRIZZLE   37  30  75 W6        29.34F
RUSH CITY      CLOUDY    36  35  96 CALM      29.35F
MOOSE LAKE     LGT RAIN  36  34  93 CALM      29.33F
HINCKLEY       DRIZZLE   36  36 100 NW6       29.34F
CLOQUET        RAIN      36  34  93 NW7       29.34F
MCGREGOR       CLOUDY    36  34  93 NW3       29.36F
$$
MNZ071>073-080-081-089-090-097-098-240400-
   Southwest Minnesota

CITY           SKY/WX    TMP DP  RH WIND       PRES   REMARKS
MONTEVIDEO     CLOUDY    28  25  86 N23       29.51S WCI  14
GRANITE FALLS  CLOUDY    29  23  78 NW24G31   29.52S WCI  15
CANBY          CLOUDY    28  22  78 NW21G30   29.54F WCI  15
MARSHALL       CLOUDY    28  19  69 NW28G36   29.51S WCI  13
REDWOOD FALLS  CLOUDY    31  25  78 NW15G33   29.47S WCI  20
OLIVIA         MOCLDY    32  27  80 NW25G33   29.45F WCI  19
PIPESTONE      CLOUDY    28  21  74 N23G33    29.50S WCI  14
WINDOM         CLOUDY    32  27  80 NW23G31   29.45F WCI  19
WORTHINGTON    CLOUDY    30  25  80 NW23G29   29.47F WCI  17
JACKSON        CLOUDY    34  27  75 NW20G28   29.45S WCI  22
TRACY          CLOUDY    31  25  79 NW24G32   29.49F WCI  17
SLAYTON        CLOUDY    29  26  86 NW31      29.48F WCI  14
$$
MNZ065>067-074>077-082>085-091>093-240400-
   South Central Minnesota

CITY           SKY/WX    TMP DP  RH WIND       PRES   REMARKS
MANKATO        CLOUDY    36  28  75 NW24G31   29.40F
NEW ULM        CLOUDY    32  28  86 NW25G32   29.44S WCI  19
ST JAMES       CLOUDY    34  27  75 NW23G31   29.44F WCI  22
FAIRMONT       CLOUDY    36  25  64 NW20G26   29.42S
GLENCOE        CLOUDY    35  31  85 W21       29.40S WCI  24
FARIBAULT      DRIZZLE   37  34  87 W16       29.37S
OWATONNA       DRIZZLE   37  34  87 W17       29.36F
WASECA         DRIZZLE   34  30  86 NW17G29   29.39F WCI  23
ALBERT LEA     CLOUDY    37  34  87 NW16G28   29.35F
$$
MNZ078>079-086>088-094>096-240400-
   Southeast Minnesota

CITY           SKY/WX    TMP DP  RH WIND       PRES   REMARKS
ROCHESTER      LGT RAIN  38  37  97 NW21      29.32F FOG
RED WING         N/A     39  37  93 NW9       29.33S
STANTON        DRIZZLE   39  36  89 NW14      29.34F
DODGE CENTER   DRIZZLE   37  37 100 NW17      29.33S
WINONA         CLOUDY    41  41 100 NW15      29.28S FOG
AUSTIN         DRIZZLE   37  36  93 NW18G25   29.33F
PRESTON        CLOUDY    37  37  98 NW15G22   29.30S FOG
$$
ABBREVIATIONS USED IN REMARKS
   TC - TEMPERATURES IN CELSIUS
  WCI - WIND CHILL INDEX
   HX - HEAT INDEX
  VSB - VISIBILITY
$$


USA.gov is the U.S. government's official web portal to all federal, state and local government web resources and services.